TimeCDT,TemperatureF,Dew PointF,Humidity,Sea Level PressureIn,VisibilityMPH,Wind Direction,Wind SpeedMPH,Gust SpeedMPH,PrecipitationIn,Events,Conditions,WindDirDegrees,DateUTC
12:15 AM,64.9,60.6,86,29.83,10.0,East,10.4,-,N/A,,Clear,100,2013-05-17 05:15:00
12:55 AM,64.4,61.2,89,29.83,7.0,ESE,9.2,-,N/A,,Clear,110,2013-05-17 05:55:00
1:15 AM,65.3,61.9,89,29.83,7.0,East,8.1,-,N/A,,Mostly Cloudy,100,2013-05-17 06:15:00
1:55 AM,66.4,62.6,88,29.82,5.0,ESE,11.5,-,N/A,,Overcast,110,2013-05-17 06:55:00
2:15 AM,66.2,63.3,90,29.82,2.5,ESE,12.7,-,N/A,,Overcast,110,2013-05-17 07:15:00
2:35 AM,66.4,63.9,92,29.82,1.8,East,9.2,-,N/A,,Overcast,100,2013-05-17 07:35:00
2:55 AM,66.4,64.4,93,29.82,1.5,ESE,10.4,-,N/A,,Overcast,120,2013-05-17 07:55:00
3:15 AM,66.4,64.4,93,29.81,1.0,ESE,10.4,-,N/A,,Overcast,110,2013-05-17 08:15:00
3:35 AM,66.6,64.8,94,29.82,0.5,ESE,9.2,-,N/A,Fog,Fog,110,2013-05-17 08:35:00
3:55 AM,66.7,65.1,95,29.85,0.5,NE,10.4,-,N/A,Fog,Fog,50,2013-05-17 08:55:00
4:15 AM,67.1,65.3,94,29.84,0.8,ENE,12.7,-,N/A,,Overcast,70,2013-05-17 09:15:00
4:35 AM,66.2,64.6,94,29.84,1.0,NE,10.4,-,N/A,,Overcast,50,2013-05-17 09:35:00
4:55 AM,65.8,64.4,95,29.84,1.2,ENE,10.4,-,N/A,Rain,Light Rain,60,2013-05-17 09:55:00
5:15 AM,66.0,64.4,94,29.83,1.2,East,10.4,-,N/A,,Overcast,80,2013-05-17 10:15:00
5:35 AM,66.2,64.4,94,29.83,1.2,ENE,11.5,-,N/A,,Overcast,70,2013-05-17 10:35:00
5:55 AM,66.2,64.6,94,29.82,1.0,East,9.2,-,N/A,,Overcast,90,2013-05-17 10:55:00
6:15 AM,66.7,65.3,95,29.82,0.8,East,8.1,-,N/A,,Overcast,100,2013-05-17 11:15:00
6:35 AM,67.8,66.4,95,29.83,0.8,ESE,9.2,-,N/A,,Overcast,120,2013-05-17 11:35:00
6:55 AM,67.6,66.2,95,29.84,0.5,ESE,10.4,-,N/A,Fog,Fog,110,2013-05-17 11:55:00
7:15 AM,68.0,66.4,95,29.84,0.5,ESE,6.9,-,N/A,Fog,Fog,120,2013-05-17 12:15:00
7:35 AM,67.5,66.0,95,29.84,0.8,ESE,11.5,-,N/A,,Overcast,120,2013-05-17 12:35:00
7:55 AM,67.5,66.2,96,29.83,1.0,SE,10.4,-,N/A,,Overcast,130,2013-05-17 12:55:00
8:15 AM,67.5,66.2,96,29.84,1.0,ESE,10.4,-,N/A,,Overcast,120,2013-05-17 13:15:00
8:35 AM,68.0,66.4,95,29.85,1.5,SE,10.4,-,N/A,,Overcast,130,2013-05-17 13:35:00
8:55 AM,68.0,66.6,95,29.85,1.5,ESE,6.9,-,N/A,,Overcast,120,2013-05-17 13:55:00
9:15 AM,68.4,67.1,96,29.86,1.5,SE,5.8,-,N/A,,Overcast,130,2013-05-17 14:15:00
9:35 AM,68.7,67.1,95,29.86,1.0,ESE,5.8,-,N/A,,Overcast,110,2013-05-17 14:35:00
9:55 AM,68.9,67.5,95,29.86,1.0,SE,6.9,-,N/A,,Overcast,130,2013-05-17 14:55:00
10:15 AM,69.3,68.0,96,29.87,1.2,ESE,5.8,-,N/A,,Overcast,110,2013-05-17 15:15:00
10:35 AM,69.4,68.0,95,29.87,1.0,East,5.8,-,N/A,,Overcast,100,2013-05-17 15:35:00
10:55 AM,69.8,68.2,95,29.87,1.2,East,8.1,-,N/A,,Overcast,90,2013-05-17 15:55:00
11:15 AM,70.3,68.9,95,29.87,1.8,East,6.9,-,N/A,,Overcast,90,2013-05-17 16:15:00
11:35 AM,70.5,68.9,95,29.87,1.8,East,8.1,-,N/A,,Overcast,80,2013-05-17 16:35:00
11:55 AM,70.9,69.1,94,29.87,2.5,East,6.9,-,N/A,,Overcast,100,2013-05-17 16:55:00
12:15 PM,71.2,68.9,92,29.88,3.0,East,6.9,-,N/A,,Overcast,80,2013-05-17 17:15:00
12:35 PM,72.3,69.4,91,29.87,4.0,East,5.8,-,N/A,,Overcast,80,2013-05-17 17:35:00
12:55 PM,73.2,68.9,86,29.87,5.0,ESE,4.6,-,N/A,,Overcast,120,2013-05-17 17:55:00
1:15 PM,74.5,69.3,84,29.87,5.0,ESE,9.2,-,N/A,,Haze,110,2013-05-17 18:15:00
1:35 PM,75.4,68.9,80,29.86,7.0,East,4.6,-,N/A,,Overcast,100,2013-05-17 18:35:00
1:55 PM,78.1,68.9,73,29.86,10.0,SE,9.2,-,N/A,,Overcast,140,2013-05-17 18:55:00
2:15 PM,79.2,68.4,69,29.85,10.0,ESE,6.9,-,N/A,,Overcast,110,2013-05-17 19:15:00
2:35 PM,81.5,66.9,61,29.85,10.0,ESE,6.9,-,N/A,,Mostly Cloudy,120,2013-05-17 19:35:00
2:55 PM,81.9,66.6,60,29.84,10.0,ENE,6.9,-,N/A,,Scattered Clouds,70,2013-05-17 19:55:00
3:15 PM,83.1,67.1,58,29.84,10.0,Calm,Calm,-,N/A,,Scattered Clouds,0,2013-05-17 20:15:00
3:35 PM,84.4,67.6,57,29.83,10.0,East,8.1,-,N/A,,Clear,80,2013-05-17 20:35:00
3:55 PM,86.0,67.3,53,29.82,7.0,SE,3.5,-,N/A,,Clear,140,2013-05-17 20:55:00
4:15 PM,86.7,68.0,54,29.81,10.0,SE,6.9,-,N/A,,Clear,130,2013-05-17 21:15:00
4:35 PM,87.3,68.7,54,29.80,10.0,SE,9.2,-,N/A,,Clear,130,2013-05-17 21:35:00
4:55 PM,87.6,68.7,53,29.80,10.0,East,8.1,-,N/A,,Clear,90,2013-05-17 21:55:00
5:35 PM,89.1,69.1,52,29.79,10.0,SE,5.8,-,N/A,,Clear,130,2013-05-17 22:35:00
5:55 PM,90.0,69.3,50,29.78,10.0,ESE,9.2,-,N/A,,Clear,120,2013-05-17 22:55:00
6:15 PM,89.8,70.0,52,29.78,10.0,ESE,10.4,-,N/A,,Clear,120,2013-05-17 23:15:00
6:35 PM,89.6,70.9,54,29.77,10.0,East,10.4,-,N/A,,Clear,100,2013-05-17 23:35:00
6:55 PM,89.1,71.1,55,29.78,10.0,East,15.0,-,N/A,,Clear,100,2013-05-17 23:55:00
7:15 PM,87.8,71.2,58,29.79,10.0,East,17.3,-,N/A,,Clear,100,2013-05-18 00:15:00
7:35 PM,86.7,71.2,60,29.78,7.0,East,16.1,23.0,N/A,,Clear,90,2013-05-18 00:35:00
7:55 PM,86.0,71.1,61,29.78,10.0,East,18.4,23.0,N/A,,Clear,100,2013-05-18 00:55:00
8:15 PM,84.7,70.9,63,29.78,7.0,East,13.8,-,N/A,,Clear,100,2013-05-18 01:15:00
8:35 PM,83.3,70.7,66,29.79,7.0,East,16.1,21.9,N/A,,Scattered Clouds,100,2013-05-18 01:35:00
8:55 PM,82.4,70.7,68,29.79,7.0,East,15.0,21.9,N/A,,Clear,100,2013-05-18 01:55:00
9:15 PM,81.5,70.7,70,29.80,7.0,East,16.1,23.0,N/A,,Clear,100,2013-05-18 02:15:00
9:35 PM,80.6,70.9,72,29.81,7.0,ESE,15.0,-,N/A,,Scattered Clouds,110,2013-05-18 02:35:00
10:35 PM,78.1,70.0,76,29.82,7.0,ESE,15.0,-,N/A,,Scattered Clouds,120,2013-05-18 03:35:00
10:55 PM,77.2,69.8,78,29.82,7.0,ESE,15.0,-,N/A,,Scattered Clouds,110,2013-05-18 03:55:00
11:15 PM,76.8,69.6,78,29.82,7.0,ESE,12.7,-,N/A,,Scattered Clouds,110,2013-05-18 04:15:00
11:35 PM,75.9,69.3,80,29.82,5.0,ESE,13.8,-,N/A,,Haze,110,2013-05-18 04:35:00
11:55 PM,75.4,69.1,81,29.82,5.0,ESE,13.8,-,N/A,,Haze,120,2013-05-18 04:55:00